Year,Month,Day,Hour,Minute,Value (Times are PST for temperature in C)
2009,03,10,00,00,-1.50
2009,03,10,00,01,-1.50
2009,03,10,00,02,-1.50
2009,03,10,00,03,-1.50
2009,03,10,00,04,-1.50
2009,03,10,00,05,-1.50
2009,03,10,00,06,-1.40
2009,03,10,00,07,-1.40
2009,03,10,00,08,-1.40
2009,03,10,00,09,-1.40
2009,03,10,00,10,-1.40
2009,03,10,00,11,-1.40
2009,03,10,00,12,-1.40
2009,03,10,01,02,-1.50
2009,03,10,01,03,-1.50
2009,03,10,01,04,-1.50
2009,03,10,01,05,-1.50
2009,03,10,01,06,-1.50
2009,03,10,01,07,-1.50
2009,03,10,01,08,-1.50
2009,03,10,01,09,-1.50
2009,03,10,01,10,-1.50
2009,03,10,01,11,-1.50
2009,03,10,01,12,-1.60
2009,03,10,01,13,-1.60
2009,03,10,01,14,-1.60
2009,03,10,01,15,-1.60
2009,03,10,01,16,-1.60
2009,03,10,01,17,-1.60
2009,03,10,01,18,-1.60
2009,03,10,01,19,-1.60
2009,03,10,01,20,-1.60
2009,03,10,01,21,-1.60
2009,03,10,01,22,-1.60
2009,03,10,01,23,-1.60
2009,03,10,01,24,-1.70
2009,03,10,01,25,-1.70
2009,03,10,01,26,-1.70
2009,03,10,01,27,-1.70
2009,03,10,01,28,-1.70
2009,03,10,01,29,-1.70
2009,03,10,01,30,-1.70
2009,03,10,01,31,-1.70
2009,03,10,01,32,-1.80
2009,03,10,01,33,-1.80
2009,03,10,01,34,-1.80
2009,03,10,01,35,-1.80
2009,03,10,01,36,-1.80
2009,03,10,01,37,-1.80
2009,03,10,01,38,-1.80
2009,03,10,01,39,-1.80
2009,03,10,01,40,-1.80
2009,03,10,01,41,-1.80
2009,03,10,01,42,-1.80
2009,03,10,01,43,-1.80
2009,03,10,01,44,-1.80
2009,03,10,01,45,-1.80
2009,03,10,01,46,-1.80
2009,03,10,01,47,-1.80
2009,03,10,01,48,-1.80
2009,03,10,01,49,-1.80
2009,03,10,01,50,-1.80
2009,03,10,01,51,-1.80
2009,03,10,01,52,-1.80
2009,03,10,01,53,-1.90
2009,03,10,01,54,-1.90
2009,03,10,01,55,-1.90
2009,03,10,01,56,-1.90
2009,03,10,01,57,-1.90
2009,03,10,01,58,-1.90
2009,03,10,01,59,-1.90
2009,03,10,02,00,-1.90
2009,03,10,02,01,-1.90
2009,03,10,02,02,-1.90
2009,03,10,02,03,-1.90
2009,03,10,02,04,-1.90
2009,03,10,02,05,-1.90
2009,03,10,02,06,-1.90
2009,03,10,02,07,-2.00
2009,03,10,02,08,-2.00
2009,03,10,02,09,-2.00
2009,03,10,02,10,-2.00
2009,03,10,02,11,-2.00
2009,03,10,02,12,-2.00
2009,03,10,02,13,-2.00
2009,03,10,02,14,-2.00
2009,03,10,02,15,-2.00
2009,03,10,02,16,-2.00
2009,03,10,02,17,-2.00
2009,03,10,02,18,-2.00
2009,03,10,02,19,-2.00
2009,03,10,02,20,-2.00
2009,03,10,02,21,-2.00
2009,03,10,02,22,-2.00
2009,03,10,02,23,-2.00
2009,03,10,02,24,-2.00
2009,03,10,02,25,-2.00
2009,03,10,02,26,-2.00
2009,03,10,02,27,-2.00
2009,03,10,02,28,-2.00
2009,03,10,02,29,-2.00
2009,03,10,02,30,-2.00
2009,03,10,02,31,-2.00
2009,03,10,02,32,-2.00
2009,03,10,02,33,-2.00
2009,03,10,02,34,-2.00
2009,03,10,02,35,-2.10
2009,03,10,02,36,-2.10
2009,03,10,02,37,-2.10
2009,03,10,02,38,-2.10
2009,03,10,02,39,-2.10
2009,03,10,02,40,-2.10
2009,03,10,02,41,-2.10
2009,03,10,02,42,-2.10
2009,03,10,02,43,-2.10
2009,03,10,02,44,-2.10
2009,03,10,02,45,-2.10
2009,03,10,02,46,-2.10
2009,03,10,02,47,-2.10
2009,03,10,02,48,-2.20
2009,03,10,02,49,-2.20
2009,03,10,02,50,-2.20
2009,03,10,02,51,-2.20
2009,03,10,02,52,-2.30
2009,03,10,02,53,-2.30
2009,03,10,02,54,-2.30
2009,03,10,02,55,-2.30
2009,03,10,02,56,-2.30
2009,03,10,02,57,-2.30
2009,03,10,02,58,-2.30
2009,03,10,02,59,-2.30
2009,03,10,03,00,-2.30
2009,03,10,03,01,-2.30
2009,03,10,03,02,-2.30
2009,03,10,03,03,-2.40
2009,03,10,03,04,-2.40
2009,03,10,03,05,-2.40
2009,03,10,03,06,-2.40
2009,03,10,03,07,-2.40
2009,03,10,03,08,-2.40
2009,03,10,03,09,-2.50
2009,03,10,03,10,-2.50
2009,03,10,03,11,-2.50
2009,03,10,03,12,-2.50
2009,03,10,03,13,-2.50
2009,03,10,03,14,-2.50
2009,03,10,03,15,-2.50
2009,03,10,03,16,-2.60
2009,03,10,03,17,-2.60
2009,03,10,03,18,-2.60
2009,03,10,03,19,-2.60
2009,03,10,03,20,-2.60
2009,03,10,03,21,-2.60
2009,03,10,03,22,-2.60
2009,03,10,03,23,-2.60
2009,03,10,03,24,-2.60
2009,03,10,03,25,-2.70
2009,03,10,03,26,-2.70
2009,03,10,03,27,-2.70
2009,03,10,03,28,-2.70
2009,03,10,03,29,-2.70
2009,03,10,03,30,-2.70
2009,03,10,03,31,-2.70
2009,03,10,03,32,-2.80
2009,03,10,03,33,-2.80
2009,03,10,03,34,-2.80
2009,03,10,03,35,-2.80
2009,03,10,03,36,-2.80
2009,03,10,03,37,-2.80
2009,03,10,03,38,-2.80
2009,03,10,03,39,-2.80
2009,03,10,03,40,-2.80
2009,03,10,03,41,-2.80
2009,03,10,03,42,-2.80
2009,03,10,03,43,-2.80
2009,03,10,03,44,-2.80
2009,03,10,03,45,-2.80
2009,03,10,03,46,-2.90
2009,03,10,03,47,-2.90
2009,03,10,03,48,-2.90
2009,03,10,03,49,-2.90
2009,03,10,03,50,-2.90
2009,03,10,03,51,-2.90
2009,03,10,03,52,-2.90
2009,03,10,03,53,-2.90
2009,03,10,03,54,-2.90
2009,03,10,03,55,-3.00
2009,03,10,03,56,-3.00
2009,03,10,03,57,-3.00
2009,03,10,03,58,-3.00
2009,03,10,03,59,-3.00
2009,03,10,04,00,-3.00
2009,03,10,04,01,-3.00
2009,03,10,04,02,-3.00
2009,03,10,04,03,-3.00
2009,03,10,04,04,-3.00
2009,03,10,04,05,-3.10
2009,03,10,04,06,-3.00
2009,03,10,04,07,-3.00
2009,03,10,04,08,-3.00
2009,03,10,04,09,-3.00
2009,03,10,04,10,-3.00
2009,03,10,04,11,-3.00
2009,03,10,04,12,-3.00
2009,03,10,04,13,-3.00
2009,03,10,04,14,-3.00
2009,03,10,04,15,-3.00
2009,03,10,04,16,-3.00
2009,03,10,04,17,-3.00
2009,03,10,04,18,-3.00
2009,03,10,04,19,-3.00
2009,03,10,04,20,-3.10
2009,03,10,04,21,-3.10
2009,03,10,04,22,-3.10
2009,03,10,04,23,-3.10
2009,03,10,04,24,-3.10
2009,03,10,04,25,-3.10
2009,03,10,04,26,-3.10
2009,03,10,04,27,-3.10
2009,03,10,04,28,-3.10
2009,03,10,04,29,-3.20
2009,03,10,04,30,-3.20
2009,03,10,04,31,-3.20
2009,03,10,04,32,-3.20
2009,03,10,04,33,-3.20
2009,03,10,04,34,-3.20
2009,03,10,04,35,-3.20
2009,03,10,04,36,-3.20
2009,03,10,04,37,-3.20
2009,03,10,04,38,-3.20
2009,03,10,04,39,-3.20
2009,03,10,04,40,-3.20
2009,03,10,04,41,-3.20
2009,03,10,04,42,-3.20
2009,03,10,04,43,-3.20
2009,03,10,04,44,-3.20
2009,03,10,04,45,-3.20
2009,03,10,04,46,-3.20
2009,03,10,04,47,-3.20
2009,03,10,04,48,-3.20
2009,03,10,04,49,-3.20
2009,03,10,04,50,-3.20
2009,03,10,04,51,-3.20
2009,03,10,04,52,-3.20
2009,03,10,04,53,-3.20
2009,03,10,04,54,-3.20
2009,03,10,04,55,-3.30
2009,03,10,04,56,-3.30
2009,03,10,04,57,-3.30
2009,03,10,04,58,-3.30
2009,03,10,04,59,-3.30
2009,03,10,05,00,-3.30
2009,03,10,05,01,-3.30
2009,03,10,05,02,-3.30
2009,03,10,05,03,-3.30
2009,03,10,05,04,-3.30
2009,03,10,05,05,-3.30
2009,03,10,05,06,-3.30
2009,03,10,05,07,-3.30
2009,03,10,05,08,-3.30
2009,03,10,05,09,-3.30
2009,03,10,05,10,-3.30
2009,03,10,05,11,-3.30
2009,03,10,05,12,-3.30
2009,03,10,05,13,-3.30
2009,03,10,05,14,-3.30
2009,03,10,05,15,-3.30
2009,03,10,05,16,-3.30
2009,03,10,05,17,-3.30
2009,03,10,05,18,-3.30
2009,03,10,05,19,-3.30
2009,03,10,05,20,-3.30
2009,03,10,05,21,-3.30
2009,03,10,05,22,-3.30
2009,03,10,05,23,-3.30
2009,03,10,05,24,-3.30
2009,03,10,05,25,-3.30
2009,03,10,05,26,-3.30
2009,03,10,05,27,-3.30
2009,03,10,05,28,-3.30
2009,03,10,05,29,-3.30
2009,03,10,05,30,-3.30
2009,03,10,05,31,-3.30
2009,03,10,05,32,-3.30
2009,03,10,05,33,-3.30
2009,03,10,05,34,-3.30
2009,03,10,05,35,-3.30
2009,03,10,05,36,-3.30
2009,03,10,05,37,-3.30
2009,03,10,05,38,-3.40
2009,03,10,05,39,-3.40
2009,03,10,05,40,-3.40
2009,03,10,05,41,-3.40
2009,03,10,05,42,-3.40
2009,03,10,05,43,-3.40
2009,03,10,05,44,-3.40
2009,03,10,05,45,-3.40
2009,03,10,05,46,-3.40
2009,03,10,05,47,-3.50
2009,03,10,05,48,-3.50
2009,03,10,05,49,-3.50
2009,03,10,05,50,-3.50
2009,03,10,05,51,-3.50
2009,03,10,05,52,-3.50
2009,03,10,05,53,-3.50
2009,03,10,05,54,-3.50
2009,03,10,05,55,-3.50
2009,03,10,05,56,-3.60
2009,03,10,05,57,-3.60
2009,03,10,05,58,-3.60
2009,03,10,05,59,-3.60
2009,03,10,06,00,-3.60
2009,03,10,06,01,-3.60
2009,03,10,06,02,-3.70
2009,03,10,06,03,-3.70
2009,03,10,06,04,-3.70
2009,03,10,06,05,-3.70
2009,03,10,06,06,-3.70
2009,03,10,06,07,-3.70
2009,03,10,06,08,-3.70
2009,03,10,06,09,-3.70
2009,03,10,06,10,-3.70
2009,03,10,06,11,-3.70
2009,03,10,06,12,-3.70
2009,03,10,06,13,-3.70
2009,03,10,06,14,-3.70
2009,03,10,06,15,-3.70
2009,03,10,06,16,-3.70
2009,03,10,06,17,-3.70
2009,03,10,06,18,-3.70
2009,03,10,06,19,-3.70
2009,03,10,06,20,-3.70
2009,03,10,06,21,-3.70
2009,03,10,06,22,-3.70
2009,03,10,06,23,-3.70
2009,03,10,06,24,-3.70
2009,03,10,06,25,-3.70
2009,03,10,06,26,-3.70
2009,03,10,06,27,-3.70
2009,03,10,06,28,-3.80
2009,03,10,06,29,-3.80
2009,03,10,06,30,-3.80
2009,03,10,06,31,-3.80
2009,03,10,06,32,-3.80
2009,03,10,06,33,-3.80
2009,03,10,06,34,-3.80
2009,03,10,06,35,-3.80
2009,03,10,06,36,-3.80
2009,03,10,06,37,-3.80
2009,03,10,06,38,-3.80
2009,03,10,06,39,-3.80
2009,03,10,06,40,-3.80
2009,03,10,06,41,-3.80
2009,03,10,06,42,-3.80
2009,03,10,06,43,-3.80
2009,03,10,06,44,-3.80
2009,03,10,06,45,-3.80
2009,03,10,06,46,-3.90
2009,03,10,06,47,-3.90
2009,03,10,06,48,-3.90
2009,03,10,06,49,-3.90
2009,03,10,06,50,-3.90
2009,03,10,06,51,-3.90
2009,03,10,06,52,-3.90
2009,03,10,06,53,-3.90
2009,03,10,06,54,-3.90
2009,03,10,06,55,-3.90
2009,03,10,06,56,-3.90
2009,03,10,06,57,-3.90
2009,03,10,06,58,-4.00
2009,03,10,06,59,-4.00
2009,03,10,07,00,-4.00
2009,03,10,07,01,-4.00
2009,03,10,07,02,-4.00
2009,03,10,07,03,-4.00
2009,03,10,07,04,-4.00
2009,03,10,07,05,-4.00
2009,03,10,07,06,-4.00
2009,03,10,07,07,-4.00
2009,03,10,07,08,-4.00
2009,03,10,07,09,-4.00
2009,03,10,07,10,-4.00
2009,03,10,07,11,-4.10
2009,03,10,07,12,-4.10
2009,03,10,07,13,-4.10
2009,03,10,07,14,-4.10
2009,03,10,07,15,-4.10
2009,03,10,07,16,-4.10
2009,03,10,07,17,-4.10
2009,03,10,07,18,-4.20
2009,03,10,07,19,-4.20
2009,03,10,07,20,-4.20
2009,03,10,07,21,-4.20
2009,03,10,07,22,-4.20
2009,03,10,07,23,-4.20
2009,03,10,07,24,-4.20
2009,03,10,07,25,-4.20
2009,03,10,07,26,-4.20
2009,03,10,07,27,-4.20
2009,03,10,07,28,-4.20
2009,03,10,07,29,-4.20
2009,03,10,07,30,-4.20
2009,03,10,07,31,-4.20
2009,03,10,07,32,-4.20
2009,03,10,07,33,-4.20
2009,03,10,07,34,-4.20
2009,03,10,07,35,-4.20
2009,03,10,07,36,-4.30
2009,03,10,07,37,-4.30
2009,03,10,07,38,-4.30
2009,03,10,07,39,-4.30
2009,03,10,07,40,-4.30
2009,03,10,07,41,-4.30
2009,03,10,07,42,-4.30
2009,03,10,07,43,-4.30
2009,03,10,07,44,-4.30
2009,03,10,07,45,-4.30
2009,03,10,07,46,-4.30
2009,03,10,07,47,-4.30
2009,03,10,07,48,-4.40
2009,03,10,07,49,-4.40
2009,03,10,07,50,-4.40
2009,03,10,07,51,-4.40
2009,03,10,07,52,-4.40
2009,03,10,07,53,-4.40
2009,03,10,07,54,-4.40
2009,03,10,07,55,-4.40
2009,03,10,07,56,-4.40
2009,03,10,07,57,-4.40
2009,03,10,07,58,-4.40
2009,03,10,07,59,-4.40
2009,03,10,08,00,-4.40
2009,03,10,08,01,-4.40
2009,03,10,08,02,-4.40
2009,03,10,08,03,-4.40
2009,03,10,08,04,-4.40
2009,03,10,08,05,-4.40
2009,03,10,08,06,-4.40
2009,03,10,08,07,-4.40
2009,03,10,08,08,-4.40
2009,03,10,08,09,-4.40
2009,03,10,08,10,-4.40
2009,03,10,08,11,-4.40
2009,03,10,08,12,-4.40
2009,03,10,08,13,-4.30
2009,03,10,08,14,-4.30
2009,03,10,08,15,-4.30
2009,03,10,08,16,-4.30
2009,03,10,08,17,-4.30
2009,03,10,08,18,-4.30
2009,03,10,08,19,-4.30
2009,03,10,08,20,-4.30
2009,03,10,08,21,-4.30
2009,03,10,08,22,-4.30
2009,03,10,08,23,-4.30
2009,03,10,08,24,-4.30
2009,03,10,08,25,-4.30
2009,03,10,08,26,-4.30
2009,03,10,08,27,-4.30
2009,03,10,08,28,-4.30
2009,03,10,08,29,-4.30
2009,03,10,08,30,-4.30
2009,03,10,08,31,-4.30
2009,03,10,08,32,-4.30
2009,03,10,08,33,-4.30
2009,03,10,08,34,-4.30
2009,03,10,08,35,-4.30
2009,03,10,08,36,-4.30
2009,03,10,08,37,-4.30
2009,03,10,08,38,-4.30
2009,03,10,08,39,-4.30
2009,03,10,08,40,-4.30
2009,03,10,08,41,-4.30
2009,03,10,08,42,-4.30
2009,03,10,08,43,-4.30
2009,03,10,08,44,-4.30
2009,03,10,08,45,-4.30
2009,03,10,08,46,-4.30
2009,03,10,08,47,-4.30
2009,03,10,08,48,-4.30
2009,03,10,08,49,-4.30
2009,03,10,08,50,-4.30
2009,03,10,08,51,-4.30
2009,03,10,08,52,-4.30
2009,03,10,08,53,-4.30
2009,03,10,08,54,-4.30
2009,03,10,08,55,-4.30
2009,03,10,08,56,-4.30
2009,03,10,08,57,-4.30
2009,03,10,08,58,-4.20
2009,03,10,08,59,-4.20
2009,03,10,09,00,-4.20
2009,03,10,09,01,-4.20
2009,03,10,09,02,-4.20
2009,03,10,09,03,-4.20
2009,03,10,09,04,-4.20
2009,03,10,09,05,-4.20
2009,03,10,09,06,-4.20
2009,03,10,09,07,-4.20
2009,03,10,09,08,-4.20
2009,03,10,09,09,-4.10
2009,03,10,09,10,-4.10
2009,03,10,09,11,-4.10
2009,03,10,09,12,-4.00
2009,03,10,09,13,-4.00
2009,03,10,09,14,-3.90
2009,03,10,09,15,-3.90
2009,03,10,09,16,-3.80
2009,03,10,09,17,-3.80
2009,03,10,09,18,-3.70
2009,03,10,09,19,-3.70
2009,03,10,09,20,-3.70
2009,03,10,09,21,-3.70
2009,03,10,09,22,-3.60
2009,03,10,09,23,-3.60
2009,03,10,09,24,-3.50
2009,03,10,09,25,-3.50
2009,03,10,09,26,-3.50
2009,03,10,09,27,-3.40
2009,03,10,09,28,-3.40
2009,03,10,09,29,-3.40
2009,03,10,09,30,-3.40
2009,03,10,09,31,-3.40
2009,03,10,09,32,-3.40
2009,03,10,09,33,-3.30
2009,03,10,09,34,-3.30
2009,03,10,09,35,-3.30
2009,03,10,09,36,-3.30
2009,03,10,09,37,-3.30
2009,03,10,09,38,-3.30
2009,03,10,09,39,-3.30
2009,03,10,09,40,-3.30
2009,03,10,09,41,-3.30
2009,03,10,09,42,-3.30
2009,03,10,09,43,-3.30
2009,03,10,09,44,-3.30
2009,03,10,09,45,-3.20
2009,03,10,09,46,-3.20
2009,03,10,09,47,-3.20
2009,03,10,09,48,-3.10
2009,03,10,09,49,-3.10
2009,03,10,09,50,-3.10
2009,03,10,09,51,-3.10
2009,03,10,09,52,-3.10
2009,03,10,09,53,-3.10
2009,03,10,09,54,-3.00
2009,03,10,09,55,-3.00
2009,03,10,09,56,-3.00
2009,03,10,09,57,-3.00
2009,03,10,09,58,-3.00
2009,03,10,09,59,-3.00
2009,03,10,10,00,-2.90
2009,03,10,10,01,-2.90
2009,03,10,10,02,-2.90
2009,03,10,10,03,-2.90
2009,03,10,10,04,-2.90
2009,03,10,10,05,-2.80
2009,03,10,10,06,-2.80
2009,03,10,10,07,-2.80
2009,03,10,10,08,-2.80
2009,03,10,10,09,-2.80
2009,03,10,10,10,-2.80
2009,03,10,10,11,-2.80
2009,03,10,10,12,-2.80
2009,03,10,10,13,-2.70
2009,03,10,10,14,-2.70
2009,03,10,10,15,-2.70
2009,03,10,10,16,-2.70
2009,03,10,10,17,-2.70
2009,03,10,10,18,-2.80
2009,03,10,10,19,-2.80
2009,03,10,10,20,-2.80
2009,03,10,10,21,-2.80
2009,03,10,10,22,-2.80
2009,03,10,10,23,-2.80
2009,03,10,10,24,-2.80
2009,03,10,10,25,-2.70
2009,03,10,10,26,-2.70
2009,03,10,10,27,-2.70
2009,03,10,10,28,-2.60
2009,03,10,10,29,-2.60
2009,03,10,10,30,-2.60
2009,03,10,10,31,-2.50
2009,03,10,10,32,-2.60
2009,03,10,10,33,-2.60
2009,03,10,10,34,-2.60
2009,03,10,10,35,-2.60
2009,03,10,10,36,-2.60
2009,03,10,10,37,-2.60
2009,03,10,10,38,-2.60
2009,03,10,10,39,-2.60
2009,03,10,10,40,-2.60
2009,03,10,10,41,-2.60
2009,03,10,10,42,-2.60
2009,03,10,10,43,-2.60
2009,03,10,10,44,-2.60
2009,03,10,10,45,-2.60
2009,03,10,10,46,-2.50
2009,03,10,10,47,-2.50
2009,03,10,10,48,-2.40
2009,03,10,10,49,-2.40
2009,03,10,10,50,-2.40
2009,03,10,10,51,-2.30
2009,03,10,10,52,-2.30
2009,03,10,10,53,-2.30
2009,03,10,10,54,-2.30
2009,03,10,10,55,-2.30
2009,03,10,10,56,-2.30
2009,03,10,10,57,-2.40
2009,03,10,10,58,-2.40
2009,03,10,10,59,-2.40
2009,03,10,11,00,-2.40
2009,03,10,11,01,-2.30
2009,03,10,11,02,-2.30
2009,03,10,11,03,-2.30
2009,03,10,11,04,-2.20
2009,03,10,11,05,-2.10
2009,03,10,11,06,-2.00
2009,03,10,11,07,-2.00
2009,03,10,11,08,-2.00
2009,03,10,11,09,-2.00
2009,03,10,11,10,-1.90
2009,03,10,11,11,-1.80
2009,03,10,11,12,-1.80
2009,03,10,11,13,-1.70
2009,03,10,11,14,-1.60
2009,03,10,11,15,-1.60
2009,03,10,11,16,-1.50
2009,03,10,11,17,-1.50
2009,03,10,11,18,-1.50
2009,03,10,11,19,-1.40
2009,03,10,11,20,-1.40
2009,03,10,11,21,-1.40
2009,03,10,11,22,-1.40
2009,03,10,11,23,-1.40
2009,03,10,11,24,-1.40
2009,03,10,11,25,-1.30
2009,03,10,11,26,-1.30
2009,03,10,11,27,-1.20
2009,03,10,11,28,-1.20
2009,03,10,11,29,-1.20
2009,03,10,11,30,-1.20
2009,03,10,11,31,-1.10
2009,03,10,11,32,-1.00
2009,03,10,11,33,-0.90
2009,03,10,11,34,-0.80
2009,03,10,11,35,-0.80
2009,03,10,11,36,-0.80
2009,03,10,11,37,-0.90
2009,03,10,11,38,-0.90
2009,03,10,11,39,-0.90
2009,03,10,11,40,-1.10
2009,03,10,11,41,-1.10
2009,03,10,11,42,-0.90
2009,03,10,11,43,-0.90
2009,03,10,11,44,-0.80
2009,03,10,11,45,-0.70
2009,03,10,11,46,-0.70
2009,03,10,11,47,-0.80
2009,03,10,11,48,-0.90
2009,03,10,11,49,-0.90
2009,03,10,11,50,-0.90
2009,03,10,11,51,-0.90
2009,03,10,11,52,-0.90
2009,03,10,11,53,-0.90
2009,03,10,11,54,-0.90
2009,03,10,11,55,-0.90
2009,03,10,11,56,-0.80
2009,03,10,11,57,-0.80
2009,03,10,11,58,-0.90
2009,03,10,11,59,-0.90
2009,03,10,12,00,-1.10
2009,03,10,12,01,-1.10
2009,03,10,12,02,-1.10
2009,03,10,12,03,-1.10
2009,03,10,12,04,-1.10
2009,03,10,12,05,-1.10
2009,03,10,12,06,-1.00
2009,03,10,12,07,-0.90
2009,03,10,12,08,-0.90
2009,03,10,12,09,-0.80
2009,03,10,12,10,-0.70
2009,03,10,12,11,-0.60
2009,03,10,12,12,-0.60
2009,03,10,12,13,-0.50
2009,03,10,12,14,-0.40
2009,03,10,12,15,-0.40
2009,03,10,12,16,-0.40
2009,03,10,12,17,-0.40
2009,03,10,12,18,-0.40
2009,03,10,12,19,-0.30
2009,03,10,12,20,-0.40
2009,03,10,12,21,-0.40
2009,03,10,12,22,-0.40
2009,03,10,12,23,-0.40
2009,03,10,12,24,-0.40
2009,03,10,12,25,-0.30
2009,03,10,12,26,-0.20
2009,03,10,12,27,-0.10
2009,03,10,12,28,-0.10
2009,03,10,12,29,-0.10
2009,03,10,12,30,0.00
2009,03,10,12,31,0.10
2009,03,10,12,32,0.10
2009,03,10,12,33,0.20
2009,03,10,12,34,0.10
2009,03,10,12,35,0.10
2009,03,10,12,36,0.00
2009,03,10,12,37,-0.10
2009,03,10,12,38,-0.10
2009,03,10,12,39,-0.10
2009,03,10,12,40,0.00
2009,03,10,12,41,-0.10
2009,03,10,12,42,0.10
2009,03,10,12,43,0.10
2009,03,10,12,44,0.20
2009,03,10,12,45,0.30
2009,03,10,12,46,0.40
2009,03,10,12,47,0.50
2009,03,10,12,48,0.50
2009,03,10,12,49,0.50
2009,03,10,12,50,0.40
2009,03,10,12,51,0.40
2009,03,10,12,52,0.40
2009,03,10,12,53,0.40
2009,03,10,12,54,0.40
2009,03,10,12,55,0.40
2009,03,10,12,56,0.40
2009,03,10,12,57,0.40
2009,03,10,12,58,0.40
2009,03,10,12,59,0.40
2009,03,10,13,00,0.40
2009,03,10,13,01,0.40
2009,03,10,13,02,0.50
2009,03,10,13,03,0.50
2009,03,10,13,04,0.50
2009,03,10,13,05,0.50
2009,03,10,13,06,0.50
2009,03,10,13,07,0.40
2009,03,10,13,08,0.40
2009,03,10,13,09,0.40
2009,03,10,13,10,0.40
2009,03,10,13,11,0.40
2009,03,10,13,12,0.50
2009,03,10,13,13,0.60
2009,03,10,13,14,0.60
2009,03,10,13,15,0.60
2009,03,10,13,16,0.50
2009,03,10,13,17,0.60
2009,03,10,13,18,0.60
2009,03,10,13,19,0.60
2009,03,10,13,20,0.70
2009,03,10,13,21,0.70
2009,03,10,13,22,0.60
2009,03,10,13,23,0.60
2009,03,10,13,24,0.60
2009,03,10,13,25,0.70
2009,03,10,13,26,0.80
2009,03,10,13,27,0.80
2009,03,10,13,28,0.70
2009,03,10,13,29,0.70
2009,03,10,13,30,0.60
2009,03,10,13,31,0.60
2009,03,10,13,32,0.60
2009,03,10,13,33,0.60
2009,03,10,13,34,0.50
2009,03,10,13,35,0.50
2009,03,10,13,36,0.50
2009,03,10,13,37,0.60
2009,03,10,13,38,0.70
2009,03,10,13,39,0.80
2009,03,10,13,40,0.70
2009,03,10,13,41,0.60
2009,03,10,13,42,0.70
2009,03,10,13,43,0.70
2009,03,10,13,44,0.80
2009,03,10,13,45,0.80
2009,03,10,13,46,0.80
2009,03,10,13,47,0.70
2009,03,10,13,48,0.60
2009,03,10,13,49,0.70
2009,03,10,13,50,0.70
2009,03,10,13,51,0.80
2009,03,10,13,52,0.90
2009,03,10,13,53,1.00
2009,03,10,13,54,1.00
2009,03,10,13,55,1.10
2009,03,10,13,56,1.20
2009,03,10,13,57,1.20
2009,03,10,13,58,1.30
2009,03,10,13,59,1.30
2009,03,10,14,00,1.20
2009,03,10,14,01,1.20
2009,03,10,14,02,1.00
2009,03,10,14,03,0.90
2009,03,10,14,04,0.90
2009,03,10,14,05,0.90
2009,03,10,14,06,0.90
2009,03,10,14,07,1.00
2009,03,10,14,08,1.00
2009,03,10,14,09,1.10
2009,03,10,14,10,1.10
2009,03,10,14,11,1.20
2009,03,10,14,12,1.30
2009,03,10,14,13,1.40
2009,03,10,14,14,1.50
2009,03,10,14,15,1.60
2009,03,10,14,16,1.70
2009,03,10,14,17,1.70
2009,03,10,14,18,1.60
2009,03,10,14,19,1.60
2009,03,10,14,20,1.40
2009,03,10,14,21,1.30
2009,03,10,14,22,1.10
2009,03,10,14,23,1.00
2009,03,10,14,24,1.00
2009,03,10,14,25,0.90
2009,03,10,14,26,0.90
2009,03,10,14,27,0.80
2009,03,10,14,28,0.90
2009,03,10,14,29,0.90
2009,03,10,14,30,0.90
2009,03,10,14,31,0.90
2009,03,10,14,32,1.00
2009,03,10,14,33,1.10
2009,03,10,14,34,1.20
2009,03,10,14,35,1.20
2009,03,10,14,36,1.30
2009,03,10,14,37,1.30
2009,03,10,14,38,1.30
2009,03,10,14,39,1.30
2009,03,10,14,40,1.50
2009,03,10,14,41,1.50
2009,03,10,14,42,1.40
2009,03,10,14,43,1.40
2009,03,10,14,44,1.40
2009,03,10,14,45,1.50
2009,03,10,14,46,1.60
2009,03,10,14,47,1.90
2009,03,10,14,48,2.00
2009,03,10,14,49,2.10
2009,03,10,14,50,2.20
2009,03,10,14,51,2.20
2009,03,10,14,52,2.20
2009,03,10,14,53,2.10
2009,03,10,14,54,2.00
2009,03,10,14,55,1.80
2009,03,10,14,56,1.80
2009,03,10,14,57,1.70
2009,03,10,14,58,1.60
2009,03,10,14,59,1.60
2009,03,10,15,00,1.50
2009,03,10,15,01,1.50
2009,03,10,15,02,1.50
2009,03,10,15,03,1.60
2009,03,10,15,04,1.70
2009,03,10,15,05,1.80
2009,03,10,15,06,1.80
2009,03,10,15,07,1.90
2009,03,10,15,08,1.90
2009,03,10,15,09,1.90
2009,03,10,15,10,2.00
2009,03,10,15,11,2.00
2009,03,10,15,12,2.00
2009,03,10,15,13,2.00
2009,03,10,15,14,2.00
2009,03,10,15,15,2.00
2009,03,10,15,16,2.00
2009,03,10,15,17,2.10
2009,03,10,15,18,2.10
2009,03,10,15,19,2.10
2009,03,10,15,20,2.10
2009,03,10,15,21,2.00
2009,03,10,15,22,1.90
2009,03,10,15,23,1.80
2009,03,10,15,24,1.80
2009,03,10,15,25,1.70
2009,03,10,15,26,1.60
2009,03,10,15,27,1.60
2009,03,10,15,28,1.70
2009,03,10,15,29,1.70
2009,03,10,15,30,1.80
2009,03,10,15,31,1.80
2009,03,10,15,32,1.90
2009,03,10,15,33,1.90
2009,03,10,15,34,1.80
2009,03,10,15,35,1.70
2009,03,10,15,36,1.60
2009,03,10,15,37,1.60
2009,03,10,15,38,1.60
2009,03,10,15,39,1.60
2009,03,10,15,40,1.50
2009,03,10,15,41,1.50
2009,03,10,15,42,1.50
2009,03,10,15,43,1.60
2009,03,10,15,44,1.70
2009,03,10,15,45,1.90
2009,03,10,15,46,2.00
2009,03,10,15,47,2.00
2009,03,10,15,48,1.80
2009,03,10,15,49,1.70
2009,03,10,15,50,1.60
2009,03,10,15,51,1.50
2009,03,10,15,52,1.40
2009,03,10,15,53,1.40
2009,03,10,15,54,1.50
2009,03,10,15,55,1.60
2009,03,10,15,56,1.90
2009,03,10,15,57,2.10
2009,03,10,15,58,2.20
2009,03,10,15,59,2.10
2009,03,10,16,00,2.10
2009,03,10,16,01,2.00
2009,03,10,16,02,1.90
2009,03,10,16,03,1.90
2009,03,10,16,04,1.80
2009,03,10,16,05,1.80
2009,03,10,16,06,1.80
2009,03,10,16,07,1.80
2009,03,10,16,08,1.80
2009,03,10,16,09,1.80
2009,03,10,16,10,1.80
2009,03,10,16,11,1.80
2009,03,10,16,12,1.90
2009,03,10,16,13,1.90
2009,03,10,16,14,2.00
2009,03,10,16,15,2.00
2009,03,10,16,16,2.00
2009,03,10,16,17,1.90
2009,03,10,16,18,1.90
2009,03,10,16,19,1.90
2009,03,10,16,20,1.80
2009,03,10,16,21,1.80
2009,03,10,16,22,1.70
2009,03,10,16,23,1.60
2009,03,10,16,24,1.60
2009,03,10,16,25,1.50
2009,03,10,16,26,1.40
2009,03,10,16,27,1.40
2009,03,10,16,28,1.30
2009,03,10,16,29,1.30
2009,03,10,16,30,1.40
2009,03,10,16,31,1.40
2009,03,10,16,32,1.50
2009,03,10,16,33,1.60
2009,03,10,16,34,1.70
2009,03,10,16,35,1.80
2009,03,10,16,36,1.80
2009,03,10,16,37,1.80
2009,03,10,16,38,1.80
2009,03,10,16,39,1.70
2009,03,10,16,40,1.70
2009,03,10,16,41,1.60
2009,03,10,16,42,1.60
2009,03,10,16,43,1.50
2009,03,10,16,44,1.50
2009,03,10,16,45,1.60
2009,03,10,16,46,1.60
2009,03,10,16,47,1.50
2009,03,10,16,48,1.50
2009,03,10,16,49,1.40
2009,03,10,16,50,1.40
2009,03,10,16,51,1.40
2009,03,10,16,52,1.50
2009,03,10,16,53,1.50
2009,03,10,16,54,1.50
2009,03,10,16,55,1.50
2009,03,10,16,56,1.50
2009,03,10,16,57,1.50
2009,03,10,16,58,1.50
2009,03,10,16,59,1.40
2009,03,10,17,00,1.40
2009,03,10,17,01,1.40
2009,03,10,17,02,1.30
2009,03,10,17,03,1.40
2009,03,10,17,04,1.50
2009,03,10,17,05,1.50
2009,03,10,17,06,1.50
2009,03,10,17,07,1.50
2009,03,10,17,08,1.40
2009,03,10,17,09,1.40
2009,03,10,17,10,1.30
2009,03,10,17,11,1.30
2009,03,10,17,12,1.30
2009,03,10,17,13,1.40
2009,03,10,17,14,1.50
2009,03,10,17,15,1.50
2009,03,10,17,16,1.40
2009,03,10,17,17,1.50
2009,03,10,17,18,1.60
2009,03,10,17,19,1.70
2009,03,10,17,20,1.80
2009,03,10,17,21,1.80
2009,03,10,17,22,1.80
2009,03,10,17,23,1.80
2009,03,10,17,24,1.80
2009,03,10,17,25,1.80
2009,03,10,17,26,1.80
2009,03,10,17,27,1.80
2009,03,10,17,28,1.70
2009,03,10,17,29,1.70
2009,03,10,17,30,1.70
2009,03,10,17,31,1.60
2009,03,10,17,32,1.50
2009,03,10,17,33,1.40
2009,03,10,17,34,1.30
2009,03,10,17,35,1.20
2009,03,10,17,36,1.20
2009,03,10,17,37,1.10
2009,03,10,17,38,1.10
2009,03,10,17,39,1.10
2009,03,10,17,40,1.10
2009,03,10,17,41,1.10
2009,03,10,17,42,1.00
2009,03,10,17,43,1.00
2009,03,10,17,44,1.00
2009,03,10,17,45,1.00
2009,03,10,17,46,1.00
2009,03,10,17,47,0.90
2009,03,10,17,48,0.90
2009,03,10,17,49,0.90
2009,03,10,17,50,0.80
2009,03,10,17,51,0.80
2009,03,10,17,52,0.80
2009,03,10,17,53,0.80
2009,03,10,17,54,0.80
2009,03,10,17,55,0.80
2009,03,10,17,56,0.80
2009,03,10,17,57,0.70
2009,03,10,17,58,0.70
2009,03,10,17,59,0.70
2009,03,10,18,00,0.60
2009,03,10,18,01,0.60
2009,03,10,18,02,0.50
2009,03,10,18,03,0.50
2009,03,10,18,04,0.50
2009,03,10,18,05,0.50
2009,03,10,18,06,0.50
2009,03,10,18,07,0.50
2009,03,10,18,08,0.40
2009,03,10,18,09,0.40
2009,03,10,18,10,0.30
2009,03,10,18,11,0.30
2009,03,10,18,12,0.20
2009,03,10,18,13,0.20
2009,03,10,18,14,0.20
2009,03,10,18,15,0.10
2009,03,10,18,16,0.10
2009,03,10,18,17,0.10
2009,03,10,18,18,0.10
2009,03,10,18,19,0.10
2009,03,10,18,20,0.10
2009,03,10,18,21,0.10
2009,03,10,18,22,0.10
2009,03,10,18,23,-0.10